Miami Beach, Florida, United States (33109)
Lat: 25.79N, Lon: 80.13W
Wx Zone: FLZ173
Local Info
Past Weather Observations for Saturday, August 29, 2015

NOTE: This archive is for the closest National Weather Service station to Miami Beach. Information may differ from the station used for current weather conditions.

Click here for Long-term Archive

Time Weather Temperature Dewpoint Humidity Pressure Winds Precip Visibility
23:53
Mostly Cloudy
Thunder Storms
81°F / 27°C 79°F / 26°C 94% 29.98 in
(1015 mb)
E 11.5 mph
(E 19 kph)
0.02 in
(0.51 mm)
4SM
23:49
Mostly Cloudy
Thunder Storms
81°F / 27°C 79°F / 26°C 94% 29.98 in
(1015 mb)
E 16.1 mph
(E 26 kph)
0.00 in
(0.00 mm)
3SM
23:23
Mostly Cloudy
82°F / 28°C 79°F / 26°C 89% 29.98 in
(1015 mb)
NNE 5.8 mph
(NNE 9 kph)
- 10SM
22:53
Mostly Cloudy
82°F / 28°C 79°F / 26°C 89% 29.98 in
(1015 mb)
NNE 5.8 mph
(NNE 9 kph)
0.01 in
(0.25 mm)
10SM
21:53
Mostly Cloudy
82°F / 28°C 77°F / 25°C 84% 30.01 in
(1016 mb)
Variable 4.6 mph
(Variable 7 kph)
0.00 in
(0.00 mm)
10SM
21:22
Overcast
Light Rain
81°F / 27°C 77°F / 25°C 89% 29.98 in
(1015 mb)
E 5.8 mph
(E 9 kph)
0.00 in
(0.00 mm)
10SM
20:53
Overcast
Thunder Storms
82°F / 28°C 75°F / 24°C 79% 29.98 in
(1015 mb)
E 10.4 mph
(E 17 kph)
0.00 in
(0.00 mm)
10SM
20:33
Overcast
Thunder Storms
84°F / 29°C 79°F / 26°C 84% 29.98 in
(1015 mb)
E 10.4 mph
(E 17 kph)
- 10SM
19:53
Overcast
84°F / 29°C 79°F / 26°C 84% 29.98 in
(1015 mb)
E 8.1 mph
(E 13 kph)
0.00 in
(0.00 mm)
10SM
18:53
Overcast
82°F / 28°C 79°F / 26°C 89% 29.98 in
(1015 mb)
ESE 6.9 mph
(ESE 11 kph)
0.03 in
(0.76 mm)
10SM
17:53
Overcast
88°F / 31°C 75°F / 24°C 66% 29.95 in
(1014 mb)
E 13.8 mph
(E 22 kph)
- 10SM
16:53
Mostly Cloudy
88°F / 31°C 77°F / 25°C 70% 29.95 in
(1014 mb)
E 13.8 mph
(E 22 kph)
- 10SM
15:53
Mostly Cloudy
90°F / 32°C 77°F / 25°C 67% 29.98 in
(1015 mb)
ESE 16.1 mph
(ESE 26 kph)
- 10SM
14:53
Mostly Cloudy
91°F / 33°C 77°F / 25°C 63% 29.98 in
(1015 mb)
E 18.4 mph
(E 30 kph)
- 10SM
13:53
Mostly Cloudy
Partly Cloudy
88°F / 31°C 79°F / 26°C 75% 30.01 in
(1016 mb)
E 17.3 mph
(E 28 kph)
0.03 in
(0.76 mm)
10SM
12:53
Mostly Cloudy
Partly Cloudy
91°F / 33°C 79°F / 26°C 67% 30.01 in
(1016 mb)
E 17.3 mph
(E 28 kph)
- 10SM
11:53
Mostly Cloudy
90°F / 32°C 79°F / 26°C 71% 30.04 in
(1017 mb)
ENE 13.8 mph
(ENE 22 kph)
- 10SM
10:53
Mostly Cloudy
91°F / 33°C 79°F / 26°C 67% 30.04 in
(1017 mb)
E 15 mph
(E 24 kph)
- 10SM
09:53
Mostly Cloudy
90°F / 32°C 79°F / 26°C 71% 30.04 in
(1017 mb)
ESE 12.7 mph
(ESE 20 kph)
- 10SM
08:53
Mostly Cloudy
90°F / 32°C 79°F / 26°C 71% 30.04 in
(1017 mb)
E 16.1 mph
(E 26 kph)
- 10SM
07:53
Mostly Cloudy
88°F / 31°C 79°F / 26°C 75% 30.04 in
(1017 mb)
E 12.7 mph
(E 20 kph)
0.05 in
(1.27 mm)
10SM
06:53
Mostly Cloudy
84°F / 29°C 79°F / 26°C 84% 30.04 in
(1017 mb)
E 8.1 mph
(E 13 kph)
- 10SM
05:53
Mostly Cloudy
84°F / 29°C 79°F / 26°C 84% 30.01 in
(1016 mb)
E 8.1 mph
(E 13 kph)
- 10SM
04:53
Mostly Cloudy
84°F / 29°C 77°F / 25°C 79% 30.01 in
(1016 mb)
E 10.4 mph
(E 17 kph)
- 10SM
03:53
Partly Cloudy
82°F / 28°C 77°F / 25°C 84% 30.01 in
(1016 mb)
E 8.1 mph
(E 13 kph)
- 10SM
02:53
Clear
82°F / 28°C 77°F / 25°C 84% 30.01 in
(1016 mb)
E 8.1 mph
(E 13 kph)
- 10SM
01:53
Mostly Cloudy
82°F / 28°C 79°F / 26°C 89% 30.01 in
(1016 mb)
E 6.9 mph
(E 11 kph)
- 9SM
00:53
Mostly Cloudy
82°F / 28°C 75°F / 24°C 79% 30.04 in
(1017 mb)
Calm - 10SM
Time Weather Temperature Dewpoint Humidity Pressure Winds Precip Visibility


Weather for websites

WeatherForYou.com, LLC is not responsible for any damages or problems caused by this service. Current weather conditions are obtained from the closest station including government and personal stations which may have varying degrees of accuracy. Weather forecasts are derived from the NOAA NDFD. Like all things, this site belongs to Jesus Christ... He just trusts us to maintain it. If you have any questions or comments email webmaster@weatherforyou.com

Copyright © 2015, WeatherForYou.com LLC. All rights reserved.